Dewpoint
59 58 59 59 59 59 60 61 62 62 62 63 63 62 61 61 60 60 60 60 60 62 60 61 63 63 63 62 62 62 61 55 55 54 50 52 59 65 60 64 61 62 64 44 44 44 44 45 45 44 44 41 43 40 41 38 39 38 38 36 33 31 26 26 23 23 22 19 18 21 27 32 32 28 28 35 35 41 42 40 48 49 51 54 56 58 58 62
59 59 59 59 58 58 59 60 61 62 62 62 63 62 62 62 60 60 60 60 61 62 61 62 63 63 63 62 61 61 59 57 52 52 51 61 64 64 65 64 63 65 60 45 44 42 42 44 44 44 44 41 47 40 43 36 38 36 34 36 38 30 29 26 23 23 21 21 19 19 21 29 31 30 29 30 30 34 36 39 44 47 50 55 57 57 60 61
58 58 59 59 59 59 58 59 61 61 62 62 63 62 62 62 61 60 59 59 60 61 61 63 63 63 62 62 61 60 59 56 51 49 51 64 64 66 65 64 64 63 51 45 44 42 42 44 44 43 42 39 38 39 43 35 39 31 34 36 36 31 28 32 29 25 24 22 19 20 23 26 30 30 30 30 28 34 31 32 40 42 44 52 57 58 60 61
58 58 58 58 58 59 58 58 60 61 61 62 62 62 62 62 61 60 59 59 59 60 61 62 63 63 62 61 61 61 58 54 50 51 52 63 65 65 65 64 63 60 51 45 44 44 44 42 41 42 42 40 37 41 38 43 35 30 28 31 33 37 29 22 26 23 22 21 20 20 24 22 25 28 30 30 29 30 30 30 32 35 40 52 57 58 59 61
57 58 58 58 58 58 59 58 58 60 61 61 62 62 62 61 61 59 59 59 59 59 60 62 63 62 61 61 61 59 54 51 51 51 58 63 66 65 65 65 63 54 46 39 41 42 41 39 39 40 41 39 37 37 37 42 40 30 29 31 34 37 33 26 21 20 21 22 20 21 20 21 24 25 27 29 28 25 27 30 32 31 38 54 56 57 59 59
56 57 58 58 58 58 58 59 58 59 60 61 61 62 61 62 61 60 59 59 59 59 60 62 63 62 61 61 60 57 52 41 55 55 63 64 65 65 65 65 59 47 38 40 41 39 39 38 40 39 39 39 39 41 36 41 40 32 30 30 34 33 30 26 21 21 21 21 20 20 22 23 23 22 25 28 28 23 26 28 32 33 42 53 56 58 58 58
56 57 58 58 58 58 58 58 59 58 58 60 61 61 61 60 61 60 60 60 59 59 60 61 63 61 61 60 59 55 51 53 52 59 59 64 64 64 65 64 59 42 42 38 39 40 40 38 40 38 39 39 35 36 36 39 40 38 36 32 31 34 30 25 25 23 21 20 20 21 23 21 22 20 25 26 28 26 29 36 27 33 50 56 56 58 58 58
56 57 58 58 58 58 58 58 59 59 59 59 61 61 61 60 60 61 60 61 59 59 59 61 62 61 60 58 56 53 52 47 49 57 60 63 61 62 63 56 47 48 45 42 41 41 40 38 38 36 39 39 37 37 35 36 33 38 39 39 36 31 32 31 26 23 22 21 21 21 20 20 22 22 22 22 24 26 30 44 44 44 52 55 56 57 58 59
57 58 58 58 58 58 59 59 59 59 59 60 61 61 61 61 60 60 61 61 61 59 59 60 61 61 60 57 54 50 48 51 53 60 62 57 58 60 57 50 49 47 46 44 44 42 42 41 39 37 36 35 35 36 31 33 33 29 31 32 30 31 27 26 25 23 20 20 21 21 20 21 21 23 21 22 22 25 44 49 51 53 52 54 55 57 57 58
56 57 58 58 58 58 58 59 58 58 59 59 59 60 60 61 60 60 61 61 61 60 59 60 61 61 58 55 53 47 56 54 61 61 62 59 56 59 53 51 49 47 44 43 45 43 43 43 41 39 38 33 36 37 32 34 31 31 28 31 28 28 27 28 26 22 20 24 21 20 18 20 21 22 18 21 23 30 38 45 53 51 51 53 55 57 57 57
55 56 57 57 57 58 58 58 58 58 58 59 59 59 60 60 61 60 59 61 61 61 60 60 60 58 54 53 48 44 57 56 63 60 60 60 58 57 52 50 50 47 46 44 46 44 45 43 39 40 42 39 35 31 29 33 27 27 29 31 28 28 29 27 24 24 23 25 21 19 18 19 20 22 19 20 27 33 32 47 50 50 47 53 55 56 57 57
54 54 55 57 57 58 57 57 58 57 57 57 58 58 59 60 61 61 61 61 61 61 61 61 61 55 52 51 47 47 55 58 63 61 61 61 58 56 52 50 48 48 47 50 53 47 44 42 42 41 39 35 35 30 31 29 28 23 22 32 22 21 23 24 26 27 26 26 19 19 19 18 19 18 20 21 32 32 31 42 50 51 49 52 55 55 56 57
53 54 55 55 57 57 56 56 57 57 57 56 56 57 59 60 61 61 60 59 59 61 61 61 60 56 52 48 47 53 56 60 62 60 60 61 58 54 53 54 53 48 49 49 48 47 45 42 42 41 37 37 32 35 31 27 23 23 23 27 29 29 30 29 24 23 25 26 19 20 30 29 18 18 19 25 28 33 31 32 42 49 51 51 54 55 55 56
54 55 55 56 56 57 56 55 56 56 56 56 56 57 57 58 59 58 59 58 60 60 61 61 60 57 52 48 53 53 59 61 60 59 58 59 57 55 52 52 52 51 55 48 48 45 43 40 44 36 34 33 33 27 28 25 25 33 23 26 31 32 35 22 23 21 23 21 19 21 30 30 19 17 20 30 30 27 24 25 32 45 49 50 53 54 55 56
54 55 55 55 56 56 56 55 54 55 56 56 56 58 57 57 58 59 58 59 60 59 61 61 60 55 50 49 52 55 62 60 57 59 58 56 56 54 52 51 47 47 45 45 43 42 38 41 40 38 35 25 26 24 26 25 26 25 30 32 28 33 35 24 23 21 26 19 19 21 28 29 29 20 18 28 33 27 21 21 25 37 45 48 51 53 54 54
53 55 54 55 55 56 56 56 55 53 55 55 55 57 59 59 58 58 58 59 59 59 59 59 57 54 51 48 50 60 55 55 55 57 58 55 54 53 52 47 46 44 44 39 39 36 34 38 40 40 28 24 26 28 25 29 25 23 31 31 31 30 34 29 22 22 23 20 20 22 30 21 21 20 17 18 27 31 24 20 23 29 39 46 48 51 52 54
53 53 54 55 55 55 56 56 56 55 56 56 56 55 58 58 58 57 57 58 59 60 58 55 56 55 45 52 56 51 49 51 57 58 56 56 54 52 51 49 46 39 38 37 37 36 32 38 31 33 30 31 28 30 31 33 25 27 28 30 32 28 29 30 23 20 27 20 20 18 21 26 25 19 16 19 19 25 25 24 24 25 30 39 46 48 50 52
52 53 54 55 53 55 55 55 55 54 56 55 56 53 56 56 56 55 57 58 59 58 57 57 57 52 49 53 48 50 50 52 56 56 57 57 52 51 51 49 45 41 39 37 38 39 34 35 34 36 33 30 26 29 34 31 30 27 30 32 30 24 23 28 29 22 19 19 19 19 18 20 22 23 22 17 20 19 20 20 20 23 24 29 39 44 46 48
51 53 54 53 54 55 55 55 52 55 55 55 53 55 53 55 58 57 53 54 50 48 44 48 50 43 42 48 51 51 52 55 56 55 53 54 52 51 48 45 45 45 44 43 40 36 37 34 35 34 32 30 28 29 33 34 30 31 32 33 34 31 29 28 28 19 18 18 19 19 19 18 18 18 18 19 20 20 19 21 23 23 25 27 30 38 43 47
52 52 52 52 54 54 53 52 51 51 52 52 54 53 52 47 48 44 52 51 48 44 46 48 51 51 51 51 52 52 54 55 53 53 54 52 50 48 46 45 47 49 44 42 39 35 38 35 36 34 34 31 30 29 33 31 32 33 33 34 33 33 33 24 22 18 20 19 21 21 20 19 21 20 21 21 22 24 22 21 23 24 25 27 28 29 36 41
52 51 51 53 53 54 52 51 51 51 51 52 53 50 42 42 38 35 43 47 47 48 48 48 50 50 49 53 53 51 51 53 54 53 52 52 48 47 44 46 46 44 46 41 39 35 34 35 38 37 35 32 30 30 33 29 30 29 28 30 30 30 31 29 24 18 20 20 25 20 18 20 19 18 18 18 18 18 19 20 21 21 21 24 28 30 34 33
51 51 51 52 53 51 51 50 50 52 54 54 52 46 46 45 49 52 48 34 41 47 48 48 49 48 53 53 55 55 54 51 52 53 53 49 47 46 45 45 44 43 44 39 35 35 35 35 37 37 36 35 33 31 32 30 29 28 30 30 30 27 28 24 22 20 18 19 21 22 19 22 22 22 19 18 17 18 18 20 19 20 23 23 23 26 28 31
50 51 50 52 51 51 50 50 50 53 52 50 47 48 47 51 55 54 53 47 37 50 46 47 45 44 46 53 52 56 51 49 47 51 51 49 47 46 45 45 44 43 39 37 36 36 36 37 37 35 34 35 34 33 32 32 31 29 30 28 30 33 29 32 26 20 19 19 22 20 19 21 20 19 18 18 17 18 20 20 21 22 21 22 21 23 27 28
49 50 50 50 50 50 50 49 50 51 50 49 48 47 52 54 53 52 50 37 38 41 47 49 49 46 44 45 52 49 50 50 50 49 52 49 46 46 45 45 44 40 37 37 37 37 38 38 37 37 35 35 32 29 31 32 31 32 32 31 31 28 27 31 25 19 19 19 23 19 21 21 23 23 25 25 19 19 20 20 21 24 28 26 32 34 31 22
49 49 49 49 49 49 48 49 47 48 50 49 48 49 53 54 53 53 47 39 38 35 51 49 50 50 50 54 54 47 48 51 51 52 51 49 47 45 45 45 43 41 39 39 38 37 36 36 37 36 34 33 31 26 30 32 31 29 31 31 31 30 27 25 23 26 30 30 20 20 27 28 26 25 24 26 23 18 19 21 21 21 23 26 23 25 28 35
49 49 49 49 49 49 49 45 45 48 47 45 46 49 51 54 51 49 43 34 27 31 42 33 47 44 52 49 49 48 47 45 52 52 52 49 48 45 46 45 44 41 40 39 38 37 37 35 36 36 36 36 33 31 31 31 33 31 29 28 29 29 30 26 24 28 30 29 24 19 26 26 24 22 20 19 18 19 19 22 19 19 20 22 24 24 25 27
49 49 49 49 49 49 43 40 46 48 44 44 48 50 52 52 52 46 33 28 23 35 37 42 39 44 48 49 48 48 35 40 54 53 52 52 46 51 44 44 43 42 40 39 39 37 33 32 35 36 36 36 35 31 30 30 32 31 35 29 28 28 29 27 27 29 31 24 29 21 20 17 17 18 20 19 18 17 16 16 19 18 18 18 20 22 25 26
48 49 49 49 48 48 42 45 46 43 40 45 49 52 51 51 49 48 31 18 15 37 33 43 44 51 48 51 49 44 46 51 47 50 52 51 50 48 44 43 42 41 39 39 35 34 34 32 35 35 35 35 34 34 32 30 31 31 29 28 26 26 27 26 25 22 24 22 23 22 27 19 20 21 18 18 18 18 18 17 18 18 20 18 21 20 24 26
48 49 49 48 49 49 50 45 45 43 47 50 51 51 51 48 47 37 25 15 37 39 50 40 54 47 49 49 46 45 45 50 45 51 52 52 50 48 45 43 42 41 40 40 38 37 35 34 34 35 34 33 35 34 30 29 30 27 30 31 30 30 28 25 22 25 25 22 25 25 23 25 25 24 19 18 18 19 20 18 18 18 19 22 22 22 21 22
46 48 48 48 48 47 48 48 42 47 49 52 52 51 48 42 39 29 21 12 33 29 42 44 39 42 47 43 44 45 43 45 48 50 50 49 47 47 45 45 43 41 42 40 35 38 29 35 36 34 33 35 30 29 33 29 32 29 27 26 26 28 27 26 27 24 26 24 26 27 21 23 23 26 23 22 19 18 19 19 18 19 22 21 24 25 29 23
46 46 47 47 47 46 47 44 46 45 48 51 49 49 47 41 31 22 15 16 27 31 44 43 39 45 42 40 39 44 43 44 46 48 44 46 43 45 46 43 48 42 41 40 33 32 33 34 36 36 29 29 30 30 33 33 31 29 27 24 24 24 23 23 21 26 25 27 22 24 24 21 24 24 25 22 19 16 18 19 19 18 18 20 24 23 21 21
46 46 46 46 48 48 41 40 46 48 47 49 47 42 41 26 30 20 16 37 24 29 36 38 42 42 40 40 39 42 41 43 46 46 43 43 41 42 44 39 42 34 34 35 34 32 33 33 32 31 32 30 32 29 27 30 32 29 25 25 27 21 23 22 20 19 23 27 17 16 19 16 19 24 20 17 18 18 17 17 18 19 18 20 21 23 26 29
45 45 45 46 48 46 45 48 49 48 49 47 43 43 33 23 18 24 24 25 20 40 35 41 41 42 41 39 37 40 42 39 45 45 44 45 41 42 44 42 43 40 32 37 30 30 28 35 31 31 30 31 32 29 24 23 26 24 23 27 27 20 24 24 21 20 20 19 14 14 19 16 21 20 20 18 19 19 17 18 22 21 20 21 23 31 21 32
45 45 44 45 46 46 47 47 47 48 49 47 41 35 30 21 20 28 26 24 26 38 39 39 42 42 40 37 37 41 38 41 43 43 44 41 42 40 43 42 40 37 37 37 28 30 28 29 30 29 29 31 33 31 26 27 25 22 29 31 29 24 24 25 23 22 24 23 15 16 22 23 24 21 18 18 18 19 17 17 22 24 23 23 24 26 24 25
43 44 45 46 45 47 47 46 46 45 43 42 36 31 21 19 24 25 24 28 33 37 37 41 40 40 38 39 40 41 40 37 43 43 42 41 39 40 40 40 40 37 38 34 32 31 31 31 32 31 32 30 32 35 32 28 27 28 34 33 29 27 23 24 20 23 21 18 16 19 20 21 21 20 20 21 20 18 19 20 22 22 22 27 25 26 27 26
43 45 45 43 43 45 46 46 47 44 42 37 30 25 23 24 23 30 26 30 36 36 33 38 40 36 37 37 39 39 41 37 41 42 40 41 41 40 41 40 40 37 36 34 33 30 32 30 30 31 31 29 32 33 31 28 24 27 28 26 29 27 21 18 20 14 21 18 18 21 17 20 18 18 18 18 17 16 17 16 16 17 21 25 26 28 26 29
43 43 41 42 43 45 45 45 46 44 40 36 27 22 27 29 29 33 32 28 33 37 36 33 33 34 34 33 35 38 38 39 38 40 36 40 38 40 40 39 40 37 37 35 32 34 31 26 28 30 27 29 32 31 32 33 32 28 25 28 31 33 27 20 18 15 16 18 21 17 18 17 17 19 19 19 18 17 17 16 14 17 20 19 26 31 31 32
42 42 40 40 42 44 45 45 44 43 39 33 23 28 32 30 33 31 34 31 35 33 35 34 33 36 33 34 34 36 38 36 34 37 34 39 34 42 41 40 39 37 36 36 33 33 31 25 25 28 30 32 35 31 29 32 35 27 28 32 28 24 24 19 17 13 13 14 16 14 12 14 17 20 13 10 13 14 16 18 18 15 16 20 23 26 28 30
43 41 36 39 42 43 44 43 43 38 34 25 25 26 28 31 33 32 34 31 33 32 31 35 32 36 37 34 35 37 38 33 37 33 33 36 34 41 42 41 39 37 36 35 32 32 34 27 24 30 28 31 31 29 26 26 31 31 32 28 32 24 25 21 19 23 18 17 17 22 14 14 21 16 17 10 10 14 10 14 16 16 17 17 21 26 30 34
39 36 33 39 42 43 43 42 41 37 31 24 25 25 27 28 30 33 34 31 30 32 31 32 35 34 36 36 36 34 38 36 37 34 35 37 38 43 41 42 41 38 35 35 33 35 29 29 25 26 30 29 23 25 27 27 24 21 25 26 25 22 25 24 18 21 17 17 15 16 16 18 22 15 15 16 15 15 15 17 21 22 21 23 25 27 32 31
41 35 32 42 42 43 43 39 35 29 28 29 28 28 28 27 29 32 35 36 35 32 28 29 32 33 35 36 36 37 36 36 37 35 35 36 38 35 42 41 40 39 40 35 33 33 28 25 26 25 24 23 25 28 31 28 25 24 24 25 26 23 21 23 23 19 19 16 15 13 17 22 24 16 13 13 14 16 19 20 22 22 18 24 30 32 31 32
36 28 29 40 43 42 38 32 31 33 29 25 25 29 28 31 29 29 33 35 36 32 34 30 28 32 35 36 37 37 36 36 37 36 36 36 38 41 41 41 39 39 34 31 30 34 30 30 27 25 24 24 28 29 31 31 31 30 24 24 26 25 22 23 22 22 18 16 21 16 13 17 25 17 14 14 13 12 20 22 19 19 23 22 28 31 29 30
33 29 42 42 41 39 36 30 33 30 28 28 29 30 30 29 29 29 30 34 35 37 35 31 29 29 35 36 37 37 36 36 37 36 36 38 39 40 41 40 41 40 37 39 32 28 34 29 26 25 27 29 28 29 32 32 30 27 27 29 26 24 24 23 20 20 20 17 19 15 14 18 22 20 19 15 22 21 21 21 20 20 20 23 28 34 33 36
34 32 37 42 43 39 33 25 26 28 29 31 30 29 31 30 29 29 29 31 35 36 35 31 31 29 32 37 37 36 38 33 37 37 36 38 38 38 42 41 41 37 36 32 30 32 29 28 26 24 24 23 24 27 27 30 30 25 23 26 27 27 28 20 23 22 20 21 20 18 16 19 28 24 23 20 17 17 16 17 22 25 27 29 27 28 32 35
35 35 36 39 42 38 31 30 28 28 28 29 29 29 30 30 31 30 31 30 35 34 35 34 31 32 31 36 36 36 37 36 33 37 38 37 37 34 42 39 39 37 37 37 36 33 32 29 27 24 21 20 20 21 22 24 25 24 24 27 27 27 25 20 19 17 18 21 23 19 19 22 15 17 14 16 16 15 18 19 19 23 26 25 30 32 31 36
32 25 33 35 36 37 35 34 31 27 26 28 27 29 30 29 31 32 31 31 33 34 34 35 35 33 31 35 34 34 35 38 37 34 36 35 32 33 38 39 39 38 37 37 34 33 30 30 30 29 26 23 25 25 27 28 25 23 23 25 27 27 25 26 23 19 17 21 20 21 22 22 14 12 13 14 17 12 9 16 18 24 25 29 30 33 34 36
36 27 27 26 34 32 32 32 31 29 25 26 25 29 28 29 30 31 33 31 32 33 34 35 34 34 32 33 34 35 35 35 35 37 35 35 31 35 38 39 39 38 38 36 33 31 29 27 30 32 31 29 31 28 31 28 25 25 25 25 26 26 26 25 23 21 23 21 17 20 22 23 21 13 13 15 17 14 16 14 14 20 26 33 33 31 33 35
27 29 30 29 28 26 28 29 31 31 30 26 25 28 27 28 29 28 33 33 32 32 33 35 36 34 33 33 33 32 34 34 35 33 34 33 31 34 34 36 36 37 34 33 35 30 29 28 30 30 31 31 31 31 29 28 26 26 26 25 25 26 25 25 25 26 25 21 19 23 23 22 19 16 13 16 16 12 12 11 12 15 20 23 27 30 33 37
34 35 34 32 26 26 30 30 32 31 30 29 28 28 27 29 28 30 30 33 33 31 32 30 34 35 33 34 33 31 34 32 32 34 33 30 31 32 31 32 33 36 35 34 33 34 30 29 31 30 29 29 28 31 30 28 26 26 26 25 26 26 26 25 25 25 25 23 23 23 24 26 22 20 17 15 20 18 14 16 20 22 20 25 28 31 27 29
31 30 29 36 30 26 25 28 32 32 30 31 28 28 28 28 29 30 31 31 30 32 34 31 32 35 36 34 34 32 34 35 34 33 34 32 30 33 32 32 33 34 36 33 34 37 33 29 32 30 28 26 27 31 29 27 27 25 26 27 25 26 26 26 25 25 26 24 23 24 23 24 23 24 21 22 20 22 21 16 14 17 20 25 25 24 26 29
37 38 36 31 28 30 29 27 28 30 29 30 29 28 30 29 28 30 31 32 32 31 33 31 32 35 36 35 34 34 36 36 36 35 35 33 30 33 31 32 33 31 33 32 33 33 34 30 31 29 27 27 24 28 29 27 26 26 25 26 25 24 24 25 25 26 25 25 25 24 24 24 23 25 25 24 22 22 19 19 19 19 17 17 20 21 23 27
38 39 37 35 27 29 30 30 29 29 26 31 31 30 30 30 29 31 31 33 32 33 34 33 31 33 35 35 34 35 36 37 38 37 35 34 33 33 34 35 33 31 31 32 34 31 32 30 28 28 27 27 25 26 26 26 27 27 26 25 26 24 24 25 26 27 27 26 24 24 23 24 24 23 21 22 22 21 21 19 22 23 25 25 24 25 25 27